Location: Deurze
(52.9838°N, 6.6090°E)
Time: 18:18:24
(UTC+00:00)

Cosmos 407 Rocket - Pass Details

Date: 11 March 2026
Orbit: 739 x 781 km, 74.1° (Epoch: 20 April)

Event Time Altitude Azimuth Distance (km) Brightness Sun altitude
Rises 19:54:14 0° 200° (SSW) 3,250 6.7 -21.9°
Reaches altitude 10° 19:56:36 10° 200° (SSW) 2,329 5.9 -22.2°
Maximum altitude 20:01:55 82° 113° (ESE) 796 3.4 -22.9°
Drops below altitude 10° 20:07:16 10° 27° (NNE) 2,346 6.0 -23.6°
Sets 20:09:39 0° 27° (NNE) 3,275 6.8 -24.0°
